TimeEST,TemperatureF,Dew PointF,Humidity,Sea Level PressureIn,VisibilityMPH,Wind Direction,Wind SpeedMPH,Gust SpeedMPH,PrecipitationIn,Events,Conditions,WindDirDegrees,DateUTC
12:15 AM,51.8,46.4,82,29.59,8.0,NNW,17.3,25.3,N/A,,Overcast,330,2012-12-11 05:15:00
12:22 AM,51.8,44.6,76,29.59,10.0,NW,18.4,25.3,N/A,,Overcast,320,2012-12-11 05:22:00
12:29 AM,50.0,42.8,76,29.60,10.0,NNW,15.0,28.8,N/A,,Overcast,330,2012-12-11 05:29:00
12:51 AM,48.9,42.1,77,29.62,8.0,NW,16.1,24.2,0.01,Rain,Light Rain,310,2012-12-11 05:51:00
1:42 AM,48.2,41.0,76,29.64,8.0,North,10.4,-,0.00,,Overcast,350,2012-12-11 06:42:00
1:51 AM,48.0,39.9,74,29.66,8.0,North,6.9,-,0.00,,Overcast,350,2012-12-11 06:51:00
2:51 AM,46.9,39.0,74,29.71,8.0,NNW,9.2,-,0.01,Rain,Light Rain,330,2012-12-11 07:51:00
3:51 AM,46.0,39.0,76,29.71,10.0,NNW,5.8,-,0.00,,Overcast,330,2012-12-11 08:51:00
4:51 AM,46.0,37.9,73,29.73,10.0,NNW,5.8,-,N/A,,Overcast,330,2012-12-11 09:51:00
5:51 AM,44.1,37.9,79,29.76,10.0,NW,5.8,-,0.01,Rain,Light Rain,320,2012-12-11 10:51:00
6:51 AM,44.1,37.0,76,29.85,10.0,WNW,8.1,-,0.00,Rain,Light Rain,290,2012-12-11 11:51:00
7:51 AM,44.6,35.6,71,29.86,10.0,NW,5.8,-,N/A,,Overcast,320,2012-12-11 12:51:00
8:51 AM,45.0,34.0,65,29.88,10.0,NW,9.2,-,N/A,,Overcast,320,2012-12-11 13:51:00
9:51 AM,46.0,33.1,61,29.90,10.0,NNW,11.5,20.7,N/A,,Clear,330,2012-12-11 14:51:00
10:51 AM,46.9,33.1,59,29.92,10.0,NW,11.5,17.3,N/A,,Partly Cloudy,320,2012-12-11 15:51:00
11:51 AM,46.9,32.0,56,29.93,10.0,NW,12.7,17.3,N/A,,Mostly Cloudy,320,2012-12-11 16:51:00
12:51 PM,46.4,30.2,53,29.93,10.0,NW,12.7,-,N/A,,Partly Cloudy,320,2012-12-11 17:51:00
1:51 PM,46.0,30.0,54,29.95,10.0,NNW,9.2,-,N/A,,Scattered Clouds,340,2012-12-11 18:51:00
2:51 PM,46.9,28.9,50,29.98,10.0,NNW,8.1,-,N/A,,Overcast,330,2012-12-11 19:51:00
3:51 PM,46.4,28.4,50,30.00,10.0,NW,9.2,-,N/A,,Scattered Clouds,320,2012-12-11 20:51:00
4:51 PM,45.0,28.9,53,30.03,10.0,NNW,5.8,-,N/A,,Overcast,330,2012-12-11 21:51:00
5:51 PM,44.6,28.4,53,30.07,10.0,NW,10.4,-,N/A,,Overcast,320,2012-12-11 22:51:00
6:51 PM,44.1,28.9,55,30.10,10.0,NNW,8.1,-,N/A,,Overcast,340,2012-12-11 23:51:00
7:51 PM,43.0,28.9,58,30.12,10.0,NNW,8.1,-,N/A,,Overcast,330,2012-12-12 00:51:00
8:51 PM,42.1,28.0,58,30.14,10.0,NW,5.8,-,N/A,,Overcast,320,2012-12-12 01:51:00
9:51 PM,42.1,27.0,55,30.16,10.0,NNW,5.8,-,N/A,,Overcast,330,2012-12-12 02:51:00
10:51 PM,41.0,26.6,57,30.18,10.0,NW,3.5,-,N/A,,Overcast,310,2012-12-12 03:51:00
11:51 PM,41.0,27.0,57,30.20,10.0,NW,5.8,-,N/A,,Overcast,320,2012-12-12 04:51:00